Regional Weather Roundup
Issued by NWS Sioux Falls, SD

Home | Current Version | Previous Version | Text Only | Print | Product List | Glossary Off
Versions: 1 2 3 4 5 6 7 8 9 10 11 12 13 14 15 16 17 18 19 20 21 22 23 24 25 26 27 28 29 30 31 32 33 34 35 36 37 38 39 40 41 42 43 44 45 46 47 48 49 50

000
ASUS43 KFSD 290910
RWRFSD

WEATHER ROUNDUP FOR SE SOUTH DAKOTA/SW MINNESOTA/NW IOWA
NATIONAL WEATHER SERVICE SIOUX FALLS SD
300 AM CST SAT NOV 29 2014

NOTE: "FAIR" INDICATES FEW OR NO CLOUDS BELOW 12,000 FEET WITH NO
SIGNIFICANT WEATHER AND OR OBSTRUCTIONS TO VISIBILITY.


SDZ038>040-050-052>070-291000-
SOUTHEAST SOUTH DAKOTA

CITY           SKY/WX    TMP DP  RH WIND       PRES   REMARKS
CHAMBERLAIN    CLEAR     25  22  91 CALM      29.43S
HURON          CLEAR     25  23  92 S9        29.44S WCI  15
MADISON        FAIR      21  21 100 SE7       29.46S WCI  13
MITCHELL       PTCLDY    24  22  91 SE6       29.47S FOG     WCI  17
SIOUX FALLS    CLEAR     21  19  92 E3        29.47F
WINNER         FAIR      53  21  28 SW16      29.45S
YANKTON        CLEAR     25  21  86 E3        29.49F
$$

MNZ071-072-080-081-089-090-097-098-291000-
SOUTHWEST MINNESOTA

CITY           SKY/WX    TMP DP  RH WIND       PRES   REMARKS
FAIRMONT       CLEAR     19  18  93 S10       29.53F WCI   8
JACKSON        CLEAR     23  21  93 S8        29.52F WCI  14
LUVERNE        CLEAR     23  21  93 CALM      29.49F FOG
MARSHALL       CLEAR     18  14  86 SE3       29.50S
MONTEVIDEO     PTCLDY    19  19 100 S10       29.52F WCI   8
PIPESTONE      CLEAR     25  23  93 SE9       29.47F WCI  15
REDWOOD FALLS  CLEAR     19  16  88 SE10      29.54F FOG     WCI   7
TRACY          CLEAR     24  23  93 S5        29.48F WCI  19
WINDOM         CLEAR     21  19  93 S5        29.52F FOG     WCI  15
WORTHINGTON    CLEAR     21  19  93 S9        29.50F WCI  11
$$

IAZ001>003-012>014-020>022-031-032-NEZ013-014-SDZ071-291000-
NORTHWEST IOWA

CITY           SKY/WX    TMP DP  RH WIND       PRES   REMARKS
CHEROKEE       FAIR      24  24 100 NE3       29.52F FOG
DENISON        CLEAR     37  32  81 S7        29.53S
ESTHERVILLE    CLEAR     16  15  96 S8        29.53F FOG     WCI   5
LE MARS        CLEAR     23  23 100 SW3       29.51S
ORANGE CITY    CLEAR     27  25  93 E7        29.49F WCI  19
SHELDON        CLEAR     23  21  93 SE7       29.49F WCI  15
SIOUX CITY     CLEAR     29  25  85 CALM      29.51F
SPENCER        CLEAR     19  16  88 E7        29.52F FOG     WCI  10
STORM LAKE     PTCLDY    27  25  93 S9        29.52F WCI  17
$$

ABBREVIATIONS USED IN REMARKS
   TC - TEMPERATURE IN CELSIUS
  WCI - WIND CHILL INDEX
   HX - HEAT INDEX
  VSB - VISIBILITY




USA.gov is the U.S. government's official web portal to all federal, state and local government web resources and services.